THOR AGENA B DEB, 2153

Orbit data source: Space-Track

THOR AGENA B DEB, 2153 is space debris in LEO originally from a launch on Mon, 29 Nov 1965 UTC launched from the Air Force Western Test Range (AFWTR). Debris objects in space refer to the collection of defunct objects orbiting the Earth. Examples of debris include non-operational satellites, rocket bodies, and fragments generated from explosions, collisions, or faulty payload assembly.

Loading next visibility...
Identifier
2153, 1965-098J
Orbit
LEO
Country
Flag of USUS
Related business
Manufacturer
Unknown
Mission
Spacecraft
Bus & Motor
Unknown
Mass
~1 kg wet, ~1 kg dry
Launch date (UTC)
1965-11-29 (60 years ago)
Launch vehicle
Unknown
Launch site
Air Force Western Test Range (AFWTR)
Object type
Payload
Rocket body
Debris
Shape & HBR
Unknown
Radar Cross Section
Small (<0.1 m²)

Expand to show TLE details & history
Last TLE update: 13 hours ago

TLE from 13 hours ago
0 THOR AGENA B DEB
1 02153U 65098J   26119.45172584  .00000683  00000-0  21015-3 0  9993
2 02153  79.7368 115.6700 1281261 148.1449   2.9606 12.39168563680994
Epoch: 2026-04-29T10:50Z
TLE epoch observation values (Epoch: 2026-04-29T10:50:29.112Z)
Latitude
27.5576°
Longitude
-89.75494°
Altitude
504.15 km
Speed
8.087 km/s
True Right ascension
19h 21m 06s
True Declination
27° 24' 42"
Sunlit
Object was in daylight at epoch
Visualization orbit readout
Latitude
Unknown
Longitude
Unknown
Altitude
Unknown
Speed
Unknown
Apparent Right ascension
Unknown
Apparent Declination
Unknown
Sunlit
N/A
Visualization observer readout
Local Sidereal Time
07:44:30
Azimuth
Unknown
Elevation
Unknown
Doppler factor
Unknown
Orbital elements
Apogee altitude
2,517.908 km
Perigee altitude
497.184 km
Semi-major axis
7,885.683 km
Eccentricity
0.12813
Inclination
79.7368°
RAAN
115.67°
Arg. of periapsis
148.1449°
True anomaly
3.86192°
Mean anomaly
2.9606°
Eccentric anomaly
3.39538°
Mean motion
3.09945 °/min
Orbital period
116.15 mins
BSTAR
0.00021015
Loading maneuver chart data...
Computing Atmospheric mass density...
Loading historical data...
Loading historical data...
Loading historical data...
Loading historical data...
Loading historical data...
Loading historical data...
Loading historical data...

Documentation

Showing up to 5 results
|